Location: Petruro
(41.0333°N, 14.7833°E)
Time: 11:49:59
(UTC+00:00)

DELTA 2 R/B (1) - Pass Details

Date: 30 October 2021
Orbit: 790 x 802 km, 39.6° (Epoch: 29 November)

Event Time Altitude Azimuth Distance (km) Brightness Sun altitude
Rises 18:28:53 0° 253° (WSW) 3,298 7.8 -28.8°
Reaches altitude 10° 18:31:22 10° 251° (WSW) 2,367 6.8 -29.2°
Enters shadow 18:35:48 54° 226° (SW) 963 4.1 -30.1°
